Wetterdaten: Samstag, 22.08.2015
Datum Zeit Auen-Temp. Temp gefhlt Luftfeuchte Luftdruck Regen Wind Richtung Richtung Taupunkt Windben
22.08.2015 00:00 9,6 C 9,4 C 87 % 1016,4 hPa 0,0 mm 0,0 km/h (0 Bft) NW 315 7,5 C 0,0 km/h (0 Bft)
22.08.2015 00:05 9,6 C 9,4 C 87 % 1016,4 hPa 0,0 mm 0,0 km/h (0 Bft) W 270 7,5 C 0,0 km/h (0 Bft)
22.08.2015 00:10 9,6 C 9,3 C 87 % 1016,4 hPa 0,0 mm 0,0 km/h (0 Bft) W 270 7,5 C 0,0 km/h (0 Bft)
22.08.2015 00:15 9,4 C 9,2 C 87 % 1016,2 hPa 0,0 mm 0,0 km/h (0 Bft) NW 315 7,3 C 0,0 km/h (0 Bft)
22.08.2015 00:20 9,4 C 9,2 C 87 % 1016,2 hPa 0,0 mm 0,0 km/h (0 Bft) W-SW 247 7,3 C 0,0 km/h (0 Bft)
22.08.2015 00:25 9,6 C 9,4 C 87 % 1016,2 hPa 0,0 mm 0,0 km/h (0 Bft) W-SW 247 7,5 C 0,0 km/h (0 Bft)
22.08.2015 00:30 9,4 C 9,3 C 88 % 1016,2 hPa 0,0 mm 0,0 km/h (0 Bft) N-NW 337 7,5 C 0,0 km/h (0 Bft)
22.08.2015 00:35 9,2 C 9,2 C 88 % 1016,1 hPa 0,0 mm 0,0 km/h (0 Bft) N-NW 337 7,3 C 0,0 km/h (0 Bft)
22.08.2015 00:40 9,0 C 8,9 C 87 % 1016,1 hPa 0,0 mm 0,0 km/h (0 Bft) NW 315 7,0 C 0,0 km/h (0 Bft)
22.08.2015 00:45 8,9 C 8,8 C 88 % 1016,1 hPa 0,0 mm 0,0 km/h (0 Bft) NW 315 7,0 C 0,0 km/h (0 Bft)
22.08.2015 00:50 9,0 C 8,8 C 88 % 1016,1 hPa 0,0 mm 0,0 km/h (0 Bft) N-NW 337 7,1 C 0,0 km/h (0 Bft)
22.08.2015 00:55 8,8 C 8,7 C 88 % 1016,1 hPa 0,0 mm 0,0 km/h (0 Bft) N-NW 337 6,9 C 0,0 km/h (0 Bft)
22.08.2015 01:00 8,9 C 8,7 C 88 % 1016,1 hPa 0,0 mm 0,0 km/h (0 Bft) W-SW 247 7,0 C 0,0 km/h (0 Bft)
22.08.2015 01:05 8,8 C 8,6 C 88 % 1016,1 hPa 0,0 mm 0,0 km/h (0 Bft) NW 315 6,9 C 0,0 km/h (0 Bft)
22.08.2015 01:10 8,7 C 8,5 C 88 % 1016,1 hPa 0,0 mm 0,0 km/h (0 Bft) NW 315 6,8 C 0,0 km/h (0 Bft)
22.08.2015 01:15 8,7 C 8,5 C 88 % 1015,9 hPa 0,0 mm 0,0 km/h (0 Bft) N-NW 337 6,8 C 0,0 km/h (0 Bft)
22.08.2015 01:20 8,6 C 8,5 C 88 % 1015,9 hPa 0,0 mm 0,0 km/h (0 Bft) N-NW 337 6,7 C 0,0 km/h (0 Bft)
22.08.2015 01:25 8,8 C 8,6 C 88 % 1015,9 hPa 0,0 mm 0,0 km/h (0 Bft) N-NW 337 6,9 C 0,0 km/h (0 Bft)
22.08.2015 01:30 8,4 C 8,4 C 88 % 1015,9 hPa 0,0 mm 0,0 km/h (0 Bft) N-NW 337 6,5 C 0,0 km/h (0 Bft)
22.08.2015 01:35 8,9 C 8,7 C 89 % 1015,9 hPa 0,0 mm 0,0 km/h (0 Bft) N-NW 337 7,2 C 0,0 km/h (0 Bft)
22.08.2015 01:40 9,0 C 8,8 C 89 % 1015,9 hPa 0,0 mm 0,0 km/h (0 Bft) W 270 7,3 C 0,0 km/h (0 Bft)
22.08.2015 01:45 8,8 C 8,6 C 89 % 1015,9 hPa 0,0 mm 0,0 km/h (0 Bft) SW 225 7,1 C 0,0 km/h (0 Bft)
22.08.2015 01:50 8,9 C 8,7 C 89 % 1015,9 hPa 0,0 mm 0,0 km/h (0 Bft) W 270 7,2 C 0,0 km/h (0 Bft)
22.08.2015 01:55 8,6 C 8,5 C 89 % 1015,6 hPa 0,0 mm 0,0 km/h (0 Bft) W 270 6,9 C 0,0 km/h (0 Bft)
22.08.2015 02:00 8,7 C 8,5 C 89 % 1015,6 hPa 0,0 mm 0,0 km/h (0 Bft) W-SW 247 7,0 C 0,0 km/h (0 Bft)
22.08.2015 02:05 8,9 C 8,6 C 89 % 1015,6 hPa 0,0 mm 0,0 km/h (0 Bft) W-SW 247 7,2 C 0,0 km/h (0 Bft)
22.08.2015 02:10 8,5 C 8,4 C 89 % 1015,6 hPa 0,0 mm 0,0 km/h (0 Bft) NO 45 6,8 C 0,0 km/h (0 Bft)
22.08.2015 02:15 8,3 C 8,2 C 89 % 1015,3 hPa 0,0 mm 0,0 km/h (0 Bft) NO 45 6,6 C 0,0 km/h (0 Bft)
22.08.2015 02:20 8,1 C 8,0 C 89 % 1015,3 hPa 0,0 mm 0,0 km/h (0 Bft) NO 45 6,4 C 0,0 km/h (0 Bft)
22.08.2015 02:25 8,3 C 8,1 C 89 % 1015,3 hPa 0,0 mm 0,0 km/h (0 Bft) NO 45 6,6 C 0,0 km/h (0 Bft)
22.08.2015 02:30 8,4 C 8,2 C 89 % 1015,3 hPa 0,0 mm 0,0 km/h (0 Bft) NO 45 6,7 C 0,0 km/h (0 Bft)
22.08.2015 02:35 8,6 C 8,3 C 89 % 1015,1 hPa 0,0 mm 0,0 km/h (0 Bft) O 90 6,9 C 0,0 km/h (0 Bft)
22.08.2015 02:40 8,6 C 8,3 C 90 % 1015,1 hPa 0,0 mm 0,0 km/h (0 Bft) O-SO 112 7,1 C 0,0 km/h (0 Bft)
22.08.2015 02:45 8,1 C 8,0 C 90 % 1015,1 hPa 0,0 mm 0,0 km/h (0 Bft) O-SO 112 6,6 C 0,0 km/h (0 Bft)
22.08.2015 02:50 8,4 C 8,2 C 90 % 1015,1 hPa 0,0 mm 0,0 km/h (0 Bft) O-SO 112 6,9 C 0,0 km/h (0 Bft)
22.08.2015 02:55 8,3 C 8,1 C 90 % 1015,1 hPa 0,0 mm 0,0 km/h (0 Bft) O-SO 112 6,8 C 0,0 km/h (0 Bft)
22.08.2015 03:00 8,0 C 7,9 C 90 % 1015,1 hPa 0,0 mm 0,0 km/h (0 Bft) O-SO 112 6,5 C 0,0 km/h (0 Bft)
22.08.2015 03:05 7,9 C 7,8 C 90 % 1015,1 hPa 0,0 mm 0,0 km/h (0 Bft) O-SO 112 6,4 C 0,0 km/h (0 Bft)
22.08.2015 03:10 7,9 C 7,7 C 90 % 1015,1 hPa 0,0 mm 0,0 km/h (0 Bft) O 90 6,4 C 0,0 km/h (0 Bft)
22.08.2015 03:15 8,0 C 7,8 C 90 % 1014,8 hPa 0,0 mm 0,0 km/h (0 Bft) O-NO 67 6,5 C 0,0 km/h (0 Bft)
22.08.2015 03:20 7,8 C 7,6 C 90 % 1014,8 hPa 0,0 mm 0,0 km/h (0 Bft) O 90 6,3 C 0,0 km/h (0 Bft)
22.08.2015 03:25 7,6 C 7,5 C 90 % 1014,8 hPa 0,0 mm 0,0 km/h (0 Bft) O 90 6,1 C 0,0 km/h (0 Bft)
22.08.2015 03:30 7,5 C 7,4 C 90 % 1014,8 hPa 0,0 mm 0,0 km/h (0 Bft) O 90 6,0 C 0,0 km/h (0 Bft)
22.08.2015 03:35 7,4 C 7,2 C 90 % 1014,9 hPa 0,0 mm 0,0 km/h (0 Bft) O 90 5,9 C 0,0 km/h (0 Bft)
22.08.2015 03:40 7,3 C 7,1 C 90 % 1014,9 hPa 0,0 mm 0,0 km/h (0 Bft) NO 45 5,8 C 0,0 km/h (0 Bft)
22.08.2015 03:45 7,4 C 7,2 C 90 % 1014,9 hPa 0,0 mm 0,0 km/h (0 Bft) O 90 5,9 C 0,0 km/h (0 Bft)
22.08.2015 03:50 7,1 C 7,0 C 90 % 1014,9 hPa 0,0 mm 0,0 km/h (0 Bft) O 90 5,6 C 0,0 km/h (0 Bft)
22.08.2015 03:55 7,6 C 7,3 C 90 % 1014,8 hPa 0,0 mm 0,0 km/h (0 Bft) O 90 6,1 C 0,0 km/h (0 Bft)
22.08.2015 04:00 7,4 C 7,2 C 90 % 1014,8 hPa 0,0 mm 0,0 km/h (0 Bft) O 90 5,9 C 0,0 km/h (0 Bft)
22.08.2015 04:05 7,2 C 7,1 C 90 % 1014,8 hPa 0,0 mm 0,0 km/h (0 Bft) NO 45 5,7 C 0,0 km/h (0 Bft)
22.08.2015 04:10 7,3 C 7,1 C 90 % 1014,8 hPa 0,0 mm 0,0 km/h (0 Bft) O-SO 112 5,8 C 0,0 km/h (0 Bft)
22.08.2015 04:15 7,8 C 7,5 C 90 % 1014,7 hPa 0,0 mm 0,0 km/h (0 Bft) O-SO 112 6,3 C 0,0 km/h (0 Bft)
22.08.2015 04:20 7,8 C 7,6 C 90 % 1014,7 hPa 0,0 mm 0,0 km/h (0 Bft) O-SO 112 6,3 C 0,0 km/h (0 Bft)
22.08.2015 04:25 7,7 C 7,5 C 90 % 1014,7 hPa 0,0 mm 0,0 km/h (0 Bft) O-SO 112 6,2 C 0,0 km/h (0 Bft)
22.08.2015 04:30 7,6 C 7,4 C 90 % 1014,7 hPa 0,0 mm 0,0 km/h (0 Bft) O-SO 112 6,1 C 0,0 km/h (0 Bft)
22.08.2015 04:35 7,8 C 7,6 C 91 % 1014,6 hPa 0,0 mm 0,0 km/h (0 Bft) O-SO 112 6,4 C 0,0 km/h (0 Bft)
22.08.2015 04:40 8,0 C 7,7 C 91 % 1014,6 hPa 0,0 mm 0,0 km/h (0 Bft) SO 135 6,6 C 0,0 km/h (0 Bft)
22.08.2015 04:45 7,9 C 7,7 C 91 % 1014,6 hPa 0,0 mm 0,0 km/h (0 Bft) W-SW 247 6,5 C 0,0 km/h (0 Bft)
22.08.2015 04:50 7,5 C 7,4 C 90 % 1014,6 hPa 0,0 mm 0,0 km/h (0 Bft) S 180 6,0 C 0,0 km/h (0 Bft)
22.08.2015 04:55 7,5 C 7,5 C 91 % 1014,4 hPa 0,0 mm 0,0 km/h (0 Bft) SW 225 6,1 C 0,0 km/h (0 Bft)
22.08.2015 05:00 7,8 C 7,8 C 91 % 1014,4 hPa 0,0 mm 2,1 km/h (1 Bft) S 180 6,4 C 0,0 km/h (0 Bft)
22.08.2015 05:05 7,6 C 7,7 C 91 % 1014,4 hPa 0,0 mm 3,1 km/h (1 Bft) S 180 6,2 C 0,0 km/h (0 Bft)
22.08.2015 05:10 7,5 C 7,5 C 91 % 1014,4 hPa 0,0 mm 0,8 km/h (0 Bft) S-SO 157 6,1 C 0,0 km/h (0 Bft)
22.08.2015 05:15 7,2 C 7,2 C 90 % 1014,4 hPa 0,0 mm 0,0 km/h (0 Bft) SW 225 5,7 C 0,0 km/h (0 Bft)
22.08.2015 05:20 7,4 C 7,3 C 91 % 1014,4 hPa 0,0 mm 0,0 km/h (0 Bft) SW 225 6,0 C 0,0 km/h (0 Bft)
22.08.2015 05:25 7,5 C 7,4 C 91 % 1014,4 hPa 0,0 mm 0,0 km/h (0 Bft) S 180 6,1 C 0,0 km/h (0 Bft)
22.08.2015 05:30 7,5 C 7,4 C 91 % 1014,4 hPa 0,0 mm 0,0 km/h (0 Bft) SW 225 6,1 C 0,0 km/h (0 Bft)
22.08.2015 05:35 7,5 C 7,4 C 91 % 1014,4 hPa 0,0 mm 0,0 km/h (0 Bft) S-SO 157 6,1 C 0,0 km/h (0 Bft)
22.08.2015 05:40 7,5 C 7,4 C 91 % 1014,4 hPa 0,0 mm 0,0 km/h (0 Bft) SW 225 6,1 C 0,0 km/h (0 Bft)
22.08.2015 05:45 7,7 C 7,5 C 91 % 1014,4 hPa 0,0 mm 0,0 km/h (0 Bft) S-SW 202 6,3 C 0,0 km/h (0 Bft)
22.08.2015 05:50 7,7 C 7,5 C 91 % 1014,4 hPa 0,0 mm 0,0 km/h (0 Bft) SW 225 6,3 C 0,0 km/h (0 Bft)
22.08.2015 05:51 7,7 C 7,5 C 91 % 1014,6 hPa 0,0 mm 0,0 km/h (0 Bft) SW 225 6,3 C 3,1 km/h (1 Bft)
22.08.2015 05:54 7,7 C 7,5 C 91 % 1014,6 hPa 0,0 mm 0,0 km/h (0 Bft) SW 225 6,3 C 3,1 km/h (1 Bft)
22.08.2015 06:00 7,4 C 7,3 C 91 % 1014,6 hPa 0,0 mm 0,5 km/h (0 Bft) S-SW 202 6,0 C 0,0 km/h (0 Bft)
22.08.2015 06:05 7,6 C 7,5 C 91 % 1014,6 hPa 0,0 mm 0,5 km/h (0 Bft) S 180 6,2 C 0,0 km/h (0 Bft)
22.08.2015 06:10 7,7 C 7,7 C 88 % 1014,6 hPa 0,0 mm 0,3 km/h (0 Bft) S 180 5,8 C 0,0 km/h (0 Bft)
22.08.2015 06:15 7,5 C 7,5 C 91 % 1014,4 hPa 0,0 mm 0,3 km/h (0 Bft) S-SW 202 6,1 C 0,0 km/h (0 Bft)
22.08.2015 06:20 7,5 C 7,4 C 91 % 1014,4 hPa 0,0 mm 0,0 km/h (0 Bft) W-SW 247 6,1 C 0,0 km/h (0 Bft)
22.08.2015 06:25 7,2 C 7,2 C 91 % 1014,4 hPa 0,0 mm 0,0 km/h (0 Bft) W-SW 247 5,8 C 0,0 km/h (0 Bft)
22.08.2015 06:30 7,1 C 7,0 C 91 % 1014,4 hPa 0,0 mm 0,0 km/h (0 Bft) W-SW 247 5,7 C 0,0 km/h (0 Bft)
22.08.2015 06:35 7,0 C 6,9 C 91 % 1014,6 hPa 0,0 mm 0,0 km/h (0 Bft) W-SW 247 5,6 C 0,0 km/h (0 Bft)
22.08.2015 06:40 7,0 C 6,9 C 91 % 1014,6 hPa 0,0 mm 0,0 km/h (0 Bft) W-SW 247 5,6 C 0,0 km/h (0 Bft)
22.08.2015 06:45 7,2 C 7,0 C 91 % 1014,6 hPa 0,0 mm 0,0 km/h (0 Bft) W-SW 247 5,8 C 0,0 km/h (0 Bft)
22.08.2015 06:50 7,1 C 7,0 C 91 % 1014,6 hPa 0,0 mm 0,0 km/h (0 Bft) SW 225 5,7 C 0,0 km/h (0 Bft)
22.08.2015 06:55 7,2 C 7,1 C 91 % 1014,6 hPa 0,0 mm 0,0 km/h (0 Bft) W-SW 247 5,8 C 0,0 km/h (0 Bft)
22.08.2015 07:00 7,2 C 7,2 C 92 % 1014,6 hPa 0,0 mm 0,0 km/h (0 Bft) SW 225 6,0 C 0,0 km/h (0 Bft)
22.08.2015 07:05 7,4 C 7,3 C 92 % 1014,6 hPa 0,0 mm 0,0 km/h (0 Bft) W-SW 247 6,2 C 0,0 km/h (0 Bft)
22.08.2015 07:10 7,3 C 7,3 C 92 % 1014,6 hPa 0,0 mm 0,0 km/h (0 Bft) W-SW 247 6,1 C 0,0 km/h (0 Bft)
22.08.2015 07:15 7,3 C 7,3 C 92 % 1014,4 hPa 0,0 mm 0,0 km/h (0 Bft) W-SW 247 6,1 C 0,0 km/h (0 Bft)
22.08.2015 07:20 7,5 C 7,5 C 92 % 1014,4 hPa 0,0 mm 0,0 km/h (0 Bft) W-SW 247 6,3 C 0,0 km/h (0 Bft)
22.08.2015 07:25 7,5 C 7,6 C 92 % 1014,4 hPa 0,0 mm 0,0 km/h (0 Bft) W-SW 247 6,3 C 0,0 km/h (0 Bft)
22.08.2015 07:30 7,9 C 7,9 C 92 % 1014,4 hPa 0,0 mm 0,0 km/h (0 Bft) S-SW 202 6,7 C 0,0 km/h (0 Bft)
22.08.2015 07:35 8,2 C 8,3 C 92 % 1014,3 hPa 0,0 mm 0,0 km/h (0 Bft) S 180 7,0 C 0,0 km/h (0 Bft)
22.08.2015 07:40 8,5 C 10,8 C 92 % 1014,3 hPa 0,0 mm 0,0 km/h (0 Bft) S 180 7,3 C 0,0 km/h (0 Bft)
22.08.2015 07:45 8,6 C 12,5 C 92 % 1014,3 hPa 0,0 mm 0,0 km/h (0 Bft) W 270 7,4 C 0,0 km/h (0 Bft)
22.08.2015 07:50 8,8 C 13,2 C 88 % 1014,3 hPa 0,0 mm 0,0 km/h (0 Bft) SW 225 6,9 C 0,0 km/h (0 Bft)
22.08.2015 07:55 9,2 C 13,7 C 88 % 1014,2 hPa 0,0 mm 0,0 km/h (0 Bft) S 180 7,3 C 0,0 km/h (0 Bft)
22.08.2015 08:00 9,9 C 14,3 C 92 % 1014,2 hPa 0,0 mm 0,0 km/h (0 Bft) S 180 8,7 C 0,0 km/h (0 Bft)
22.08.2015 08:05 10,1 C 15,1 C 92 % 1014,2 hPa 0,0 mm 0,0 km/h (0 Bft) S 180 8,9 C 0,0 km/h (0 Bft)
22.08.2015 08:10 10,4 C 16,3 C 92 % 1014,2 hPa 0,0 mm 0,0 km/h (0 Bft) S 180 9,2 C 0,0 km/h (0 Bft)
22.08.2015 08:15 10,5 C 16,5 C 92 % 1013,8 hPa 0,0 mm 0,0 km/h (0 Bft) S 180 9,3 C 0,0 km/h (0 Bft)
22.08.2015 08:20 11,2 C 16,7 C 88 % 1013,8 hPa 0,0 mm 0,0 km/h (0 Bft) W 270 9,3 C 0,0 km/h (0 Bft)
22.08.2015 08:25 11,7 C 17,6 C 88 % 1013,8 hPa 0,0 mm 0,0 km/h (0 Bft) W 270 9,8 C 0,0 km/h (0 Bft)
22.08.2015 08:30 12,1 C 18,9 C 87 % 1013,8 hPa 0,0 mm 0,0 km/h (0 Bft) W-NW 292 10,0 C 0,0 km/h (0 Bft)
22.08.2015 08:35 12,2 C 19,9 C 87 % 1013,9 hPa 0,0 mm 0,0 km/h (0 Bft) W-NW 292 10,1 C 0,0 km/h (0 Bft)
22.08.2015 08:40 12,8 C 21,3 C 87 % 1013,9 hPa 0,0 mm 0,0 km/h (0 Bft) W-NW 292 10,7 C 0,0 km/h (0 Bft)
22.08.2015 08:45 13,3 C 21,7 C 87 % 1013,9 hPa 0,0 mm 0,0 km/h (0 Bft) W-NW 292 11,2 C 0,0 km/h (0 Bft)
22.08.2015 08:50 13,8 C 22,0 C 86 % 1013,9 hPa 0,0 mm 0,0 km/h (0 Bft) O-NO 67 11,5 C 0,0 km/h (0 Bft)
22.08.2015 08:55 14,4 C 22,5 C 86 % 1014,3 hPa 0,0 mm 0,0 km/h (0 Bft) O 90 12,1 C 0,0 km/h (0 Bft)
22.08.2015 09:00 15,4 C 23,3 C 87 % 1014,3 hPa 0,0 mm 0,3 km/h (0 Bft) O-NO 67 13,2 C 0,0 km/h (0 Bft)
22.08.2015 09:05 15,7 C 23,3 C 87 % 1014,3 hPa 0,0 mm 0,8 km/h (0 Bft) O-NO 67 13,5 C 3,4 km/h (1 Bft)
22.08.2015 09:10 15,8 C 22,9 C 82 % 1014,3 hPa 0,0 mm 1,8 km/h (1 Bft) NO 45 12,7 C 6,7 km/h (2 Bft)
22.08.2015 09:15 15,9 C 22,9 C 81 % 1014,4 hPa 0,0 mm 2,3 km/h (1 Bft) N-NW 337 12,6 C 5,4 km/h (1 Bft)
22.08.2015 09:20 15,9 C 23,0 C 80 % 1014,4 hPa 0,0 mm 3,1 km/h (1 Bft) O-NO 67 12,5 C 3,9 km/h (1 Bft)
22.08.2015 09:25 16,2 C 22,9 C 79 % 1014,4 hPa 0,0 mm 3,6 km/h (1 Bft) O-NO 67 12,6 C 3,4 km/h (1 Bft)
22.08.2015 09:30 16,3 C 22,9 C 78 % 1014,4 hPa 0,0 mm 3,9 km/h (1 Bft) N-NO 22 12,5 C 7,8 km/h (2 Bft)
22.08.2015 09:35 16,4 C 22,8 C 78 % 1014,4 hPa 0,0 mm 3,9 km/h (1 Bft) N-NO 22 12,6 C 3,1 km/h (1 Bft)
22.08.2015 09:40 16,7 C 23,1 C 77 % 1014,4 hPa 0,0 mm 3,1 km/h (1 Bft) O-NO 67 12,6 C 6,7 km/h (2 Bft)
22.08.2015 09:45 16,6 C 22,7 C 77 % 1014,4 hPa 0,0 mm 2,3 km/h (1 Bft) N-NW 337 12,5 C 0,0 km/h (0 Bft)
22.08.2015 09:50 17,2 C 23,5 C 76 % 1014,4 hPa 0,0 mm 3,1 km/h (1 Bft) N-NO 22 12,9 C 0,0 km/h (0 Bft)
22.08.2015 09:55 17,4 C 23,8 C 75 % 1014,6 hPa 0,0 mm 3,6 km/h (1 Bft) NO 45 12,9 C 6,2 km/h (2 Bft)
22.08.2015 10:00 17,3 C 22,9 C 74 % 1014,6 hPa 0,0 mm 5,2 km/h (1 Bft) O-NO 67 12,6 C 12,9 km/h (3 Bft)
22.08.2015 10:05 17,2 C 22,9 C 73 % 1014,6 hPa 0,0 mm 6,7 km/h (2 Bft) NO 45 12,3 C 15,5 km/h (3 Bft)
22.08.2015 10:10 17,2 C 22,5 C 72 % 1014,6 hPa 0,0 mm 7,3 km/h (2 Bft) N-NO 22 12,1 C 16,6 km/h (3 Bft)
22.08.2015 10:15 17,2 C 22,3 C 72 % 1014,6 hPa 0,0 mm 7,5 km/h (2 Bft) NO 45 12,1 C 9,3 km/h (2 Bft)
22.08.2015 10:20 17,5 C 22,1 C 71 % 1014,6 hPa 0,0 mm 7,3 km/h (2 Bft) O-NO 67 12,2 C 8,3 km/h (2 Bft)
22.08.2015 10:25 17,9 C 22,6 C 71 % 1014,6 hPa 0,0 mm 6,5 km/h (2 Bft) N-NO 22 12,6 C 5,4 km/h (1 Bft)
22.08.2015 10:30 18,1 C 23,5 C 70 % 1014,6 hPa 0,0 mm 5,7 km/h (1 Bft) NO 45 12,5 C 6,5 km/h (2 Bft)
22.08.2015 10:35 18,3 C 23,8 C 69 % 1014,6 hPa 0,0 mm 6,2 km/h (2 Bft) O-NO 67 12,5 C 8,0 km/h (2 Bft)
22.08.2015 10:40 18,2 C 23,3 C 68 % 1014,6 hPa 0,0 mm 6,0 km/h (2 Bft) N-NO 22 12,2 C 10,9 km/h (2 Bft)
22.08.2015 10:45 18,3 C 23,5 C 68 % 1014,6 hPa 0,0 mm 6,0 km/h (2 Bft) NO 45 12,3 C 6,7 km/h (2 Bft)
22.08.2015 10:50 18,3 C 22,9 C 68 % 1014,6 hPa 0,0 mm 6,2 km/h (2 Bft) O-NO 67 12,3 C 9,3 km/h (2 Bft)
22.08.2015 10:55 18,4 C 23,0 C 68 % 1014,6 hPa 0,0 mm 6,5 km/h (2 Bft) O-NO 67 12,4 C 10,6 km/h (2 Bft)
22.08.2015 11:00 18,6 C 23,2 C 67 % 1014,6 hPa 0,0 mm 8,0 km/h (2 Bft) NO 45 12,3 C 11,1 km/h (2 Bft)
22.08.2015 11:05 18,5 C 23,3 C 66 % 1014,6 hPa 0,0 mm 9,1 km/h (2 Bft) O-NO 67 12,0 C 15,8 km/h (3 Bft)
22.08.2015 11:10 18,3 C 22,9 C 65 % 1014,6 hPa 0,0 mm 9,6 km/h (2 Bft) N-NO 22 11,6 C 18,1 km/h (3 Bft)
22.08.2015 11:15 18,5 C 22,6 C 66 % 1014,7 hPa 0,0 mm 8,8 km/h (2 Bft) N-NO 22 12,0 C 5,2 km/h (1 Bft)
22.08.2015 11:20 18,9 C 23,2 C 65 % 1014,7 hPa 0,0 mm 7,8 km/h (2 Bft) N 360 12,2 C 6,0 km/h (2 Bft)
22.08.2015 11:25 19,0 C 23,4 C 65 % 1014,7 hPa 0,0 mm 7,3 km/h (2 Bft) O-NO 67 12,3 C 5,4 km/h (1 Bft)
22.08.2015 11:30 19,1 C 23,2 C 65 % 1014,7 hPa 0,0 mm 6,7 km/h (2 Bft) O-NO 67 12,4 C 11,4 km/h (2 Bft)
22.08.2015 11:35 19,3 C 23,4 C 65 % 1014,5 hPa 0,0 mm 8,0 km/h (2 Bft) N 360 12,6 C 5,4 km/h (1 Bft)
22.08.2015 11:40 19,3 C 23,4 C 65 % 1014,5 hPa 0,0 mm 8,3 km/h (2 Bft) O-NO 67 12,6 C 7,0 km/h (2 Bft)
22.08.2015 11:45 19,3 C 23,5 C 63 % 1014,5 hPa 0,0 mm 7,8 km/h (2 Bft) NO 45 12,1 C 14,8 km/h (3 Bft)
22.08.2015 11:50 19,6 C 23,7 C 64 % 1014,5 hPa 0,0 mm 8,0 km/h (2 Bft) NO 45 12,6 C 13,2 km/h (3 Bft)
22.08.2015 11:51 19,6 C 23,8 C 64 % 1014,6 hPa 0,0 mm 8,0 km/h (2 Bft) NO 45 12,6 C 4,4 km/h (1 Bft)
22.08.2015 11:55 19,6 C 23,8 C 64 % 1014,6 hPa 0,0 mm 8,0 km/h (2 Bft) NO 45 12,6 C 4,4 km/h (1 Bft)
22.08.2015 12:00 20,0 C 24,3 C 64 % 1014,6 hPa 0,0 mm 7,0 km/h (2 Bft) N-NW 337 13,0 C 6,7 km/h (2 Bft)
22.08.2015 12:05 20,1 C 24,7 C 64 % 1014,6 hPa 0,0 mm 6,0 km/h (2 Bft) N-NW 337 13,1 C 4,1 km/h (1 Bft)
22.08.2015 12:10 20,0 C 24,5 C 64 % 1014,6 hPa 0,0 mm 8,3 km/h (2 Bft) N-NO 22 13,0 C 9,1 km/h (2 Bft)
22.08.2015 12:15 20,0 C 24,5 C 64 % 1014,6 hPa 0,0 mm 8,8 km/h (2 Bft) N-NO 22 13,0 C 12,9 km/h (3 Bft)
22.08.2015 12:20 20,2 C 24,3 C 63 % 1014,6 hPa 0,0 mm 8,3 km/h (2 Bft) O-NO 67 12,9 C 12,9 km/h (3 Bft)
22.08.2015 12:25 20,2 C 24,3 C 63 % 1014,6 hPa 0,0 mm 8,0 km/h (2 Bft) N-NO 22 12,9 C 8,5 km/h (2 Bft)
22.08.2015 12:30 20,5 C 24,8 C 63 % 1014,6 hPa 0,0 mm 7,5 km/h (2 Bft) W-SW 247 13,2 C 5,7 km/h (1 Bft)
22.08.2015 12:35 20,7 C 24,8 C 62 % 1014,6 hPa 0,0 mm 7,5 km/h (2 Bft) N-NO 22 13,2 C 8,5 km/h (2 Bft)
22.08.2015 12:40 20,9 C 25,1 C 62 % 1014,6 hPa 0,0 mm 7,3 km/h (2 Bft) N-NW 337 13,3 C 14,8 km/h (3 Bft)
22.08.2015 12:45 20,7 C 24,9 C 61 % 1014,6 hPa 0,0 mm 7,8 km/h (2 Bft) NO 45 12,9 C 7,5 km/h (2 Bft)
22.08.2015 12:50 20,8 C 24,1 C 62 % 1014,6 hPa 0,0 mm 7,8 km/h (2 Bft) N-NW 337 13,2 C 11,7 km/h (2 Bft)
22.08.2015 12:55 21,1 C 23,6 C 59 % 1014,6 hPa 0,0 mm 7,5 km/h (2 Bft) O-NO 67 12,8 C 11,9 km/h (2 Bft)
22.08.2015 13:00 20,9 C 22,8 C 59 % 1014,6 hPa 0,0 mm 8,8 km/h (2 Bft) NO 45 12,6 C 10,4 km/h (2 Bft)
22.08.2015 13:05 20,8 C 22,8 C 58 % 1014,6 hPa 0,0 mm 8,5 km/h (2 Bft) O-NO 67 12,2 C 11,4 km/h (2 Bft)
22.08.2015 13:10 20,8 C 23,0 C 57 % 1014,6 hPa 0,0 mm 8,0 km/h (2 Bft) O 90 12,0 C 12,7 km/h (3 Bft)
22.08.2015 13:15 20,9 C 23,8 C 58 % 1014,4 hPa 0,0 mm 6,7 km/h (2 Bft) N-NW 337 12,3 C 4,4 km/h (1 Bft)
22.08.2015 13:20 21,2 C 24,7 C 58 % 1014,4 hPa 0,0 mm 6,7 km/h (2 Bft) SO 135 12,6 C 6,7 km/h (2 Bft)
22.08.2015 13:25 21,2 C 25,2 C 57 % 1014,4 hPa 0,0 mm 6,5 km/h (2 Bft) O-NO 67 12,3 C 9,1 km/h (2 Bft)
22.08.2015 13:30 21,4 C 25,6 C 57 % 1014,4 hPa 0,0 mm 6,2 km/h (2 Bft) NO 45 12,5 C 8,8 km/h (2 Bft)
22.08.2015 13:35 21,6 C 26,0 C 57 % 1014,3 hPa 0,0 mm 6,2 km/h (2 Bft) NO 45 12,7 C 14,8 km/h (3 Bft)
22.08.2015 13:40 21,8 C 26,4 C 57 % 1014,3 hPa 0,0 mm 5,4 km/h (1 Bft) O-NO 67 12,9 C 6,2 km/h (2 Bft)
22.08.2015 13:45 21,8 C 26,4 C 57 % 1014,3 hPa 0,0 mm 6,5 km/h (2 Bft) O-SO 112 12,9 C 7,8 km/h (2 Bft)
22.08.2015 13:50 21,6 C 26,2 C 57 % 1014,3 hPa 0,0 mm 7,3 km/h (2 Bft) O 90 12,7 C 6,0 km/h (2 Bft)
22.08.2015 13:55 21,8 C 26,5 C 57 % 1014,0 hPa 0,0 mm 7,0 km/h (2 Bft) O-NO 67 12,9 C 5,2 km/h (1 Bft)
22.08.2015 14:00 21,9 C 26,6 C 56 % 1014,0 hPa 0,0 mm 7,3 km/h (2 Bft) N-NO 22 12,7 C 11,1 km/h (2 Bft)
22.08.2015 14:05 21,8 C 26,2 C 57 % 1014,0 hPa 0,0 mm 7,8 km/h (2 Bft) NO 45 12,9 C 8,8 km/h (2 Bft)
22.08.2015 14:10 21,9 C 26,2 C 56 % 1014,0 hPa 0,0 mm 8,3 km/h (2 Bft) N-NW 337 12,7 C 7,3 km/h (2 Bft)
22.08.2015 14:15 22,3 C 26,6 C 56 % 1013,8 hPa 0,0 mm 7,8 km/h (2 Bft) N-NO 22 13,1 C 18,1 km/h (3 Bft)
22.08.2015 14:20 21,5 C 24,8 C 56 % 1013,8 hPa 0,0 mm 7,8 km/h (2 Bft) O-NO 67 12,3 C 3,9 km/h (1 Bft)
22.08.2015 14:25 20,8 C 23,4 C 56 % 1013,8 hPa 0,0 mm 6,7 km/h (2 Bft) O 90 11,7 C 4,4 km/h (1 Bft)
22.08.2015 14:30 21,2 C 23,7 C 55 % 1013,8 hPa 0,0 mm 6,5 km/h (2 Bft) O-NO 67 11,8 C 20,5 km/h (4 Bft)
22.08.2015 14:35 21,7 C 24,5 C 54 % 1013,6 hPa 0,0 mm 9,6 km/h (2 Bft) NO 45 12,0 C 15,8 km/h (3 Bft)
22.08.2015 14:40 22,2 C 25,4 C 54 % 1013,6 hPa 0,0 mm 8,3 km/h (2 Bft) O-NO 67 12,4 C 0,0 km/h (0 Bft)
22.08.2015 14:45 22,3 C 26,1 C 53 % 1013,6 hPa 0,0 mm 7,3 km/h (2 Bft) O-SO 112 12,2 C 7,3 km/h (2 Bft)
22.08.2015 14:50 22,2 C 26,6 C 53 % 1013,6 hPa 0,0 mm 5,2 km/h (1 Bft) O-NO 67 12,2 C 9,1 km/h (2 Bft)
22.08.2015 14:55 22,3 C 26,7 C 52 % 1013,4 hPa 0,0 mm 5,7 km/h (1 Bft) NO 45 12,0 C 4,1 km/h (1 Bft)
22.08.2015 15:00 22,2 C 26,8 C 52 % 1013,4 hPa 0,0 mm 6,5 km/h (2 Bft) N-NO 22 11,9 C 7,8 km/h (2 Bft)
22.08.2015 15:05 22,4 C 26,9 C 53 % 1013,4 hPa 0,0 mm 4,9 km/h (1 Bft) SO 135 12,3 C 4,9 km/h (1 Bft)
22.08.2015 15:10 22,2 C 27,1 C 51 % 1013,4 hPa 0,0 mm 4,9 km/h (1 Bft) NO 45 11,6 C 14,0 km/h (3 Bft)
22.08.2015 15:15 22,2 C 26,4 C 51 % 1013,2 hPa 0,0 mm 6,2 km/h (2 Bft) N 360 11,6 C 4,4 km/h (1 Bft)
22.08.2015 15:20 22,4 C 26,7 C 51 % 1013,2 hPa 0,0 mm 7,0 km/h (2 Bft) O-NO 67 11,8 C 5,4 km/h (1 Bft)
22.08.2015 15:25 22,4 C 26,6 C 49 % 1013,2 hPa 0,0 mm 7,0 km/h (2 Bft) O-SO 112 11,2 C 10,6 km/h (2 Bft)
22.08.2015 15:30 22,5 C 26,7 C 51 % 1013,2 hPa 0,0 mm 6,7 km/h (2 Bft) O-NO 67 11,8 C 4,7 km/h (1 Bft)
22.08.2015 15:35 22,0 C 25,8 C 51 % 1013,0 hPa 0,0 mm 6,7 km/h (2 Bft) NO 45 11,4 C 16,6 km/h (3 Bft)
22.08.2015 15:40 21,9 C 24,8 C 49 % 1013,0 hPa 0,0 mm 8,8 km/h (2 Bft) O-NO 67 10,7 C 3,4 km/h (1 Bft)
22.08.2015 15:45 21,9 C 25,2 C 50 % 1013,0 hPa 0,0 mm 7,8 km/h (2 Bft) NO 45 11,0 C 7,0 km/h (2 Bft)
22.08.2015 15:50 22,3 C 25,9 C 49 % 1013,0 hPa 0,0 mm 6,7 km/h (2 Bft) O-NO 67 11,1 C 14,8 km/h (3 Bft)
22.08.2015 15:55 22,3 C 26,1 C 49 % 1012,9 hPa 0,0 mm 7,3 km/h (2 Bft) O-NO 67 11,1 C 7,8 km/h (2 Bft)
22.08.2015 16:00 22,3 C 26,3 C 49 % 1012,9 hPa 0,0 mm 7,5 km/h (2 Bft) NO 45 11,1 C 8,5 km/h (2 Bft)
22.08.2015 16:05 22,2 C 26,5 C 49 % 1012,9 hPa 0,0 mm 7,0 km/h (2 Bft) O-NO 67 11,0 C 4,9 km/h (1 Bft)
22.08.2015 16:10 22,2 C 26,5 C 49 % 1012,9 hPa 0,0 mm 6,7 km/h (2 Bft) SW 225 11,0 C 6,2 km/h (2 Bft)
22.08.2015 16:15 22,0 C 26,6 C 49 % 1012,8 hPa 0,0 mm 6,0 km/h (2 Bft) SO 135 10,8 C 0,0 km/h (0 Bft)
22.08.2015 16:20 21,7 C 26,7 C 51 % 1012,8 hPa 0,0 mm 4,4 km/h (1 Bft) NO 45 11,1 C 5,4 km/h (1 Bft)
22.08.2015 16:25 21,6 C 26,8 C 49 % 1012,8 hPa 0,0 mm 5,7 km/h (1 Bft) O-NO 67 10,4 C 12,4 km/h (3 Bft)
22.08.2015 16:30 21,3 C 26,4 C 49 % 1012,8 hPa 0,0 mm 7,3 km/h (2 Bft) N 360 10,1 C 4,9 km/h (1 Bft)
22.08.2015 16:35 21,3 C 26,5 C 49 % 1012,7 hPa 0,0 mm 7,5 km/h (2 Bft) N 360 10,1 C 5,4 km/h (1 Bft)
22.08.2015 16:40 21,2 C 26,8 C 49 % 1012,7 hPa 0,0 mm 6,0 km/h (2 Bft) NW 315 10,1 C 0,0 km/h (0 Bft)
22.08.2015 16:45 21,2 C 26,8 C 49 % 1012,7 hPa 0,0 mm 6,0 km/h (2 Bft) S-SO 157 10,1 C 7,3 km/h (2 Bft)
22.08.2015 16:50 21,1 C 24,7 C 50 % 1012,7 hPa 0,0 mm 5,7 km/h (1 Bft) N-NO 22 10,3 C 8,8 km/h (2 Bft)
22.08.2015 16:55 21,1 C 23,6 C 50 % 1012,5 hPa 0,0 mm 5,7 km/h (1 Bft) O-NO 67 10,3 C 6,5 km/h (2 Bft)
22.08.2015 17:00 21,0 C 22,6 C 49 % 1012,5 hPa 0,0 mm 6,2 km/h (2 Bft) O-SO 112 9,9 C 4,1 km/h (1 Bft)
22.08.2015 17:05 21,0 C 22,3 C 49 % 1012,5 hPa 0,0 mm 5,2 km/h (1 Bft) NO 45 9,9 C 5,2 km/h (1 Bft)
22.08.2015 17:10 20,9 C 21,9 C 49 % 1012,5 hPa 0,0 mm 4,9 km/h (1 Bft) NW 315 9,8 C 7,5 km/h (2 Bft)
22.08.2015 17:15 20,9 C 21,7 C 49 % 1012,3 hPa 0,0 mm 7,0 km/h (2 Bft) NO 45 9,8 C 9,8 km/h (2 Bft)
22.08.2015 17:20 20,9 C 21,6 C 49 % 1012,3 hPa 0,0 mm 6,7 km/h (2 Bft) NO 45 9,8 C 3,1 km/h (1 Bft)
22.08.2015 17:25 20,9 C 21,6 C 49 % 1012,3 hPa 0,0 mm 5,4 km/h (1 Bft) S-SO 157 9,8 C 5,2 km/h (1 Bft)
22.08.2015 17:30 20,8 C 21,5 C 49 % 1012,3 hPa 0,0 mm 5,2 km/h (1 Bft) S 180 9,7 C 3,1 km/h (1 Bft)
22.08.2015 17:35 20,7 C 21,5 C 49 % 1012,2 hPa 0,0 mm 5,7 km/h (1 Bft) NO 45 9,6 C 13,7 km/h (3 Bft)
22.08.2015 17:40 20,7 C 21,3 C 49 % 1012,2 hPa 0,0 mm 6,0 km/h (2 Bft) N-NO 22 9,6 C 7,8 km/h (2 Bft)
22.08.2015 17:45 20,7 C 21,3 C 49 % 1012,2 hPa 0,7 mm 6,7 km/h (2 Bft) O-NO 67 9,6 C 6,7 km/h (2 Bft)
22.08.2015 17:50 20,6 C 21,3 C 49 % 1012,2 hPa 0,0 mm 5,4 km/h (1 Bft) NO 45 9,5 C 5,7 km/h (1 Bft)
22.08.2015 17:51 20,6 C 21,3 C 49 % 1011,9 hPa 0,0 mm 5,2 km/h (1 Bft) O-NO 67 9,5 C 6,5 km/h (2 Bft)
22.08.2015 17:56 20,6 C 21,3 C 49 % 1011,9 hPa 0,0 mm 7,3 km/h (2 Bft) S-SW 202 9,5 C 6,2 km/h (2 Bft)
22.08.2015 17:57 20,6 C 21,3 C 49 % 1011,9 hPa 0,0 mm 7,3 km/h (2 Bft) S-SW 202 9,5 C 6,2 km/h (2 Bft)
22.08.2015 18:00 20,6 C 21,3 C 49 % 1011,9 hPa 0,0 mm 7,3 km/h (2 Bft) S-SW 202 9,5 C 6,2 km/h (2 Bft)
22.08.2015 18:05 20,5 C 21,2 C 51 % 1011,9 hPa 0,0 mm 7,5 km/h (2 Bft) O-NO 67 10,0 C 7,8 km/h (2 Bft)
22.08.2015 18:10 20,4 C 21,2 C 51 % 1011,9 hPa 0,0 mm 6,7 km/h (2 Bft) NO 45 9,9 C 14,2 km/h (3 Bft)
22.08.2015 18:15 20,4 C 21,1 C 51 % 1011,9 hPa 0,0 mm 7,0 km/h (2 Bft) N-NO 22 9,9 C 10,6 km/h (2 Bft)
22.08.2015 18:20 20,2 C 21,0 C 52 % 1011,9 hPa 0,0 mm 5,7 km/h (1 Bft) O-SO 112 10,0 C 8,3 km/h (2 Bft)
22.08.2015 18:25 20,0 C 20,8 C 53 % 1011,9 hPa 0,0 mm 4,7 km/h (1 Bft) S 180 10,1 C 10,1 km/h (2 Bft)
22.08.2015 18:30 19,8 C 20,6 C 53 % 1011,9 hPa 0,0 mm 4,1 km/h (1 Bft) N-NO 22 9,9 C 0,0 km/h (0 Bft)
22.08.2015 18:35 19,7 C 20,4 C 53 % 1011,6 hPa 0,0 mm 3,4 km/h (1 Bft) N-NO 22 9,8 C 3,1 km/h (1 Bft)
22.08.2015 18:40 19,6 C 20,2 C 54 % 1011,6 hPa 0,0 mm 4,7 km/h (1 Bft) O-NO 67 10,0 C 9,8 km/h (2 Bft)
22.08.2015 18:45 19,7 C 20,2 C 54 % 1011,6 hPa 0,0 mm 5,7 km/h (1 Bft) N-NO 22 10,1 C 3,9 km/h (1 Bft)
22.08.2015 18:50 19,4 C 20,1 C 54 % 1011,6 hPa 0,0 mm 5,2 km/h (1 Bft) O 90 9,8 C 4,7 km/h (1 Bft)
22.08.2015 18:55 19,3 C 19,9 C 55 % 1011,5 hPa 0,0 mm 4,4 km/h (1 Bft) O-NO 67 10,0 C 10,1 km/h (2 Bft)
22.08.2015 19:00 19,2 C 19,7 C 55 % 1011,5 hPa 0,0 mm 3,4 km/h (1 Bft) SO 135 9,9 C 6,7 km/h (2 Bft)
22.08.2015 19:05 19,2 C 19,5 C 55 % 1011,5 hPa 0,0 mm 3,1 km/h (1 Bft) SO 135 9,9 C 5,4 km/h (1 Bft)
22.08.2015 19:10 18,9 C 19,3 C 55 % 1011,5 hPa 0,0 mm 3,1 km/h (1 Bft) O-SO 112 9,7 C 0,0 km/h (0 Bft)
22.08.2015 19:15 18,8 C 19,1 C 55 % 1011,4 hPa 0,0 mm 2,6 km/h (1 Bft) O-SO 112 9,6 C 0,0 km/h (0 Bft)
22.08.2015 19:20 18,5 C 18,8 C 56 % 1011,4 hPa 0,0 mm 0,8 km/h (0 Bft) O-SO 112 9,6 C 0,0 km/h (0 Bft)
22.08.2015 19:25 18,4 C 18,7 C 56 % 1011,4 hPa 0,0 mm 0,3 km/h (0 Bft) SO 135 9,5 C 0,0 km/h (0 Bft)
22.08.2015 19:30 18,2 C 18,5 C 58 % 1011,4 hPa 0,0 mm 0,0 km/h (0 Bft) SO 135 9,8 C 0,0 km/h (0 Bft)
22.08.2015 19:35 18,1 C 19,1 C 58 % 1011,4 hPa 0,0 mm 0,3 km/h (0 Bft) SO 135 9,7 C 0,0 km/h (0 Bft)
22.08.2015 19:40 17,9 C 19,8 C 58 % 1011,4 hPa 0,0 mm 1,0 km/h (0 Bft) SO 135 9,5 C 3,9 km/h (1 Bft)
22.08.2015 19:45 17,7 C 20,0 C 58 % 1011,4 hPa 0,0 mm 1,3 km/h (1 Bft) O-NO 67 9,3 C 3,6 km/h (1 Bft)
22.08.2015 19:50 17,5 C 20,0 C 59 % 1011,4 hPa 0,0 mm 1,3 km/h (1 Bft) SO 135 9,4 C 0,0 km/h (0 Bft)
22.08.2015 19:55 17,3 C 19,8 C 59 % 1011,4 hPa 0,0 mm 1,3 km/h (1 Bft) S-SO 157 9,2 C 2,8 km/h (1 Bft)
22.08.2015 20:00 17,1 C 18,8 C 59 % 1011,4 hPa 0,0 mm 0,5 km/h (0 Bft) S 180 9,0 C 0,0 km/h (0 Bft)
22.08.2015 20:05 16,8 C 18,1 C 60 % 1011,4 hPa 0,0 mm 0,3 km/h (0 Bft) S-SO 157 9,0 C 2,6 km/h (1 Bft)
22.08.2015 20:10 16,4 C 17,3 C 61 % 1011,4 hPa 0,0 mm 0,5 km/h (0 Bft) S-SO 157 8,9 C 0,0 km/h (0 Bft)
22.08.2015 20:15 16,2 C 16,8 C 62 % 1011,3 hPa 0,0 mm 1,0 km/h (0 Bft) S-SO 157 8,9 C 0,0 km/h (0 Bft)
22.08.2015 20:20 15,9 C 16,2 C 63 % 1011,3 hPa 0,0 mm 0,8 km/h (0 Bft) S-SO 157 8,9 C 0,0 km/h (0 Bft)
22.08.2015 20:25 15,8 C 15,8 C 65 % 1011,3 hPa 0,0 mm 0,3 km/h (0 Bft) SO 135 9,2 C 2,8 km/h (1 Bft)
22.08.2015 20:30 15,7 C 15,6 C 65 % 1011,3 hPa 0,0 mm 1,3 km/h (1 Bft) S-SO 157 9,1 C 0,0 km/h (0 Bft)
22.08.2015 20:35 15,6 C 15,5 C 65 % 1011,2 hPa 0,0 mm 2,1 km/h (1 Bft) S 180 9,0 C 4,1 km/h (1 Bft)
22.08.2015 20:40 15,4 C 15,3 C 66 % 1011,2 hPa 0,0 mm 1,8 km/h (1 Bft) S-SO 157 9,1 C 3,9 km/h (1 Bft)
22.08.2015 20:45 15,1 C 15,1 C 66 % 1011,2 hPa 0,0 mm 1,6 km/h (1 Bft) S-SO 157 8,8 C 3,1 km/h (1 Bft)
22.08.2015 20:50 14,8 C 14,8 C 67 % 1011,2 hPa 0,0 mm 0,5 km/h (0 Bft) S 180 8,7 C 2,6 km/h (1 Bft)
22.08.2015 20:55 14,8 C 14,8 C 68 % 1011,0 hPa 0,0 mm 0,8 km/h (0 Bft) S 180 9,0 C 0,0 km/h (0 Bft)
22.08.2015 21:00 14,7 C 14,6 C 68 % 1011,0 hPa 0,0 mm 0,8 km/h (0 Bft) S 180 8,9 C 0,0 km/h (0 Bft)
22.08.2015 21:05 13,9 C 14,2 C 68 % 1011,0 hPa 0,0 mm 0,5 km/h (0 Bft) S 180 8,1 C 0,0 km/h (0 Bft)
22.08.2015 21:10 13,6 C 13,5 C 69 % 1011,0 hPa 0,0 mm 0,0 km/h (0 Bft) SO 135 8,0 C 0,0 km/h (0 Bft)
22.08.2015 21:15 13,7 C 13,6 C 69 % 1011,0 hPa 0,0 mm 0,0 km/h (0 Bft) S-SO 157 8,1 C 0,0 km/h (0 Bft)
22.08.2015 21:20 13,6 C 13,5 C 70 % 1011,0 hPa 0,0 mm 0,0 km/h (0 Bft) S-SO 157 8,2 C 0,0 km/h (0 Bft)
22.08.2015 21:25 13,6 C 13,6 C 70 % 1011,0 hPa 0,0 mm 0,0 km/h (0 Bft) SO 135 8,2 C 0,0 km/h (0 Bft)
22.08.2015 21:30 13,1 C 13,1 C 70 % 1011,0 hPa 0,0 mm 0,0 km/h (0 Bft) S-SO 157 7,8 C 0,0 km/h (0 Bft)
22.08.2015 21:35 12,8 C 12,8 C 71 % 1010,8 hPa 0,0 mm 0,0 km/h (0 Bft) SO 135 7,7 C 0,0 km/h (0 Bft)
22.08.2015 21:40 12,6 C 12,5 C 72 % 1010,8 hPa 0,0 mm 0,0 km/h (0 Bft) S 180 7,7 C 0,0 km/h (0 Bft)
22.08.2015 21:45 12,6 C 12,4 C 73 % 1010,8 hPa 0,0 mm 0,0 km/h (0 Bft) S-SO 157 7,9 C 0,0 km/h (0 Bft)
22.08.2015 21:50 12,3 C 12,2 C 73 % 1010,8 hPa 0,0 mm 0,3 km/h (0 Bft) S 180 7,6 C 0,0 km/h (0 Bft)
22.08.2015 21:55 11,9 C 11,8 C 73 % 1010,9 hPa 0,0 mm 0,3 km/h (0 Bft) S 180 7,2 C 0,0 km/h (0 Bft)
22.08.2015 22:00 11,6 C 11,5 C 74 % 1010,9 hPa 0,0 mm 0,0 km/h (0 Bft) S 180 7,1 C 0,0 km/h (0 Bft)
22.08.2015 22:05 11,7 C 11,6 C 75 % 1010,9 hPa 0,0 mm 0,0 km/h (0 Bft) S-SO 157 7,4 C 0,0 km/h (0 Bft)
22.08.2015 22:10 11,5 C 11,5 C 75 % 1010,9 hPa 0,0 mm 0,0 km/h (0 Bft) S-SO 157 7,2 C 0,0 km/h (0 Bft)
22.08.2015 22:15 11,4 C 11,3 C 76 % 1010,6 hPa 0,0 mm 0,0 km/h (0 Bft) S-SO 157 7,3 C 0,0 km/h (0 Bft)
22.08.2015 22:20 11,4 C 11,1 C 76 % 1010,6 hPa 0,0 mm 0,0 km/h (0 Bft) SO 135 7,3 C 0,0 km/h (0 Bft)
22.08.2015 22:25 11,2 C 10,9 C 76 % 1010,6 hPa 0,0 mm 0,0 km/h (0 Bft) SO 135 7,1 C 0,0 km/h (0 Bft)
22.08.2015 22:30 11,2 C 10,9 C 77 % 1010,6 hPa 0,0 mm 0,0 km/h (0 Bft) SO 135 7,3 C 0,0 km/h (0 Bft)
22.08.2015 22:35 11,1 C 10,8 C 77 % 1010,1 hPa 0,0 mm 0,0 km/h (0 Bft) SO 135 7,2 C 0,0 km/h (0 Bft)
22.08.2015 22:40 10,8 C 10,6 C 77 % 1010,1 hPa 0,0 mm 0,0 km/h (0 Bft) SO 135 6,9 C 0,0 km/h (0 Bft)
22.08.2015 22:45 10,7 C 10,4 C 78 % 1010,1 hPa 0,0 mm 0,0 km/h (0 Bft) S-SO 157 7,0 C 0,0 km/h (0 Bft)
22.08.2015 22:50 10,8 C 10,5 C 78 % 1010,1 hPa 0,0 mm 0,0 km/h (0 Bft) S-SO 157 7,1 C 0,0 km/h (0 Bft)
22.08.2015 22:55 11,1 C 10,8 C 78 % 1009,9 hPa 0,0 mm 0,0 km/h (0 Bft) S-SO 157 7,4 C 0,0 km/h (0 Bft)
22.08.2015 23:00 10,8 C 10,6 C 79 % 1009,9 hPa 0,0 mm 0,0 km/h (0 Bft) S-SO 157 7,3 C 0,0 km/h (0 Bft)
22.08.2015 23:05 10,6 C 10,4 C 79 % 1009,9 hPa 0,0 mm 0,0 km/h (0 Bft) S-SO 157 7,1 C 0,0 km/h (0 Bft)
22.08.2015 23:10 10,2 C 10,0 C 79 % 1009,9 hPa 0,0 mm 0,0 km/h (0 Bft) S-SO 157 6,7 C 0,0 km/h (0 Bft)
22.08.2015 23:15 10,3 C 10,1 C 79 % 1009,8 hPa 0,0 mm 0,0 km/h (0 Bft) SO 135 6,8 C 0,0 km/h (0 Bft)
22.08.2015 23:20 10,2 C 10,0 C 80 % 1009,8 hPa 0,0 mm 0,0 km/h (0 Bft) NO 45 6,9 C 0,0 km/h (0 Bft)
22.08.2015 23:25 10,1 C 10,0 C 80 % 1009,8 hPa 0,0 mm 0,0 km/h (0 Bft) N-NO 22 6,8 C 0,0 km/h (0 Bft)
22.08.2015 23:30 10,3 C 10,0 C 81 % 1009,8 hPa 0,0 mm 0,0 km/h (0 Bft) NO 45 7,2 C 0,0 km/h (0 Bft)
22.08.2015 23:35 10,1 C 9,9 C 81 % 1009,6 hPa 0,0 mm 0,0 km/h (0 Bft) NO 45 7,0 C 0,0 km/h (0 Bft)
22.08.2015 23:40 10,1 C 9,8 C 81 % 1009,6 hPa 0,0 mm 0,0 km/h (0 Bft) N-NO 22 7,0 C 0,0 km/h (0 Bft)
22.08.2015 23:45 10,5 C 10,1 C 82 % 1009,6 hPa 0,0 mm 0,0 km/h (0 Bft) SO 135 7,6 C 0,0 km/h (0 Bft)
22.08.2015 23:50 10,9 C 10,5 C 83 % 1009,6 hPa 0,0 mm 0,0 km/h (0 Bft) SW 225 8,1 C 0,0 km/h (0 Bft)
22.08.2015 23:55 10,5 C 10,3 C 83 % 1009,4 hPa 0,0 mm 0,0 km/h (0 Bft) SO 135 7,7 C 0,0 km/h (0 Bft)
22.08.2015 23:56 9,9 C 9,8 C 82 % 1009,4 hPa 0,0 mm 0,0 km/h (0 Bft) O 90 7,0 C 0,0 km/h (0 Bft)
22.08.2015 23:58 9,9 C 9,8 C 82 % 1009,4 hPa 0,0 mm 0,0 km/h (0 Bft) O 90 7,0 C 0,0 km/h (0 Bft)
_ Min-Zeit 06:40 06:40 18:00 23:58 - 23:58 - - 03:50 23:58
Minimum _ 7,0 C 6,9 C 49 % 1009,4 hPa - 0,0 km/h (0 Bft) - - 5,6 C 0,0 km/h (0 Bft)
_ Max-Zeit 15:30 15:10 08:15 00:10 17:45 14:35 - - 09:05 14:30
Maximum _ 22,5 C 27,1 C 92 % 1016,4 hPa 0,7 mm 9,6 km/h
NO (2 Bft)
- - 13,5 C 20,5 km/h
O-NO (4 Bft)
Durchschnitt _ 14,4 C 16,3 C 73 % 1013,5 hPa #0,7 mm 2,8 km/h (1 Bft) O-NO - 9,2 C 3,4 km/h (1 Bft)